Find Kosmos-800

NORAD ID: 8645 Int'l Des: 1976-011 Owner: VMF Country: SU operational
LEOCIRCULARPOLAR

Live-Position

3D-Globus wird geladen...

Über Kosmos-800

Beschreibung wird geladen...

Nächste Überflüge

Passes for default location (London). Set your location on the main map for personalized predictions.

Höhenverlauf

Loading altitude history...

Zweizeiliger Elementsatz

1 08645U 76011A 26107.18108601 .00000057 00000-0 45186-4 0 9999
2 08645 82.9740 161.4138 0022199 147.0928 267.9524 13.72197493513025
Epoch: 17. Apr. 2026 • Age: 11 hours

Aktueller Status

Höhe 996.9 km
Geschwindigkeit 7.36 km/s
Subsatellitenpunkt -31.82°S, 94.45°W
Typ other

Most Searched